PSLV R/B, 46915

Orbit data source: Space-Track

PSLV R/B, 46915 is space debris in LEO originally from a launch on Sat, 07 Nov 2020 UTC launched from the Sirharikota (SRI). Debris objects in space refer to the collection of defunct objects orbiting the Earth. Examples of debris include non-operational satellites, rocket bodies, and fragments generated from explosions, collisions, or faulty payload assembly.

Loading next visibility...
Identifier
46915, 2020-081L
Orbit
LEO
Country
Flag of ININ / IND
Related business
Manufacturer
VSSC/LPSC
Mission
Spacecraft
Bus & Motor
PS-4DL, Unknown motor
Mass
920 kg wet, 920 kg dry
Launch date (UTC)
2020-11-07 (5 years ago)
Launch vehicle
Unknown
Launch site
Sirharikota (SRI)
Object type
Payload
Rocket body
Debris
Shape & HBR
Cyl + Cyl + 2 Nozzle, Unknown HBR
Radar Cross Section
10.342 m², Large (>1 m²)

Expand to show TLE details & history
Last TLE update: 7 hours ago

TLE from 7 hours ago
0 PSLV R/B
1 46915U 20081L   25243.21538765  .00014562  00000-0  48476-3 0  9999
2 46915  36.8462 250.3468 0026676 305.6452  54.1814 15.30123942266520
Epoch: 2025-08-31T05:10Z
TLE epoch observation values (Epoch: 2025-08-31T05:10:09.492Z)
Latitude
-0.00005°
Longitude
-166.83135°
Altitude
463.877 km
Speed
7.643 km/s
True Right ascension
16h 41m 23s
True Declination
0° 00' 00"
Sunlit
Object was in daylight at epoch
Visualization orbit readout
Latitude
Unknown
Longitude
Unknown
Altitude
Unknown
Speed
Unknown
Apparent Right ascension
Unknown
Apparent Declination
Unknown
Sunlit
N/A
Visualization observer readout
Local Sidereal Time
04:04:07
Azimuth
Unknown
Elevation
Unknown
Doppler factor
Unknown
Orbital elements
Apogee altitude
496.698 km
Perigee altitude
460.117 km
Semi-major axis
6,856.544 km
Eccentricity
0.00267
Inclination
36.8462°
RAAN
250.3468°
Arg. of periapsis
305.6452°
True anomaly
54.42976°
Mean anomaly
54.1814°
Eccentric anomaly
54.30553°
Mean motion
3.82283 °/min
Orbital period
94.17 mins
BSTAR
0.00048476
Loading maneuver chart data...
Computing Atmospheric mass density...
Loading historical data...
Loading historical data...
Loading historical data...
Loading historical data...
Loading historical data...
Loading historical data...
Loading historical data...

Documentation

Showing up to 5 results
|